Regional Weather Roundup
Issued by NWS Midland/Odessa, TX

Home | Current Version | Previous Version | Text Only | Print | Product List | Glossary On
Versions: 1 2 3 4 5 6 7 8 9 10 11 12 13 14 15 16 17 18 19 20 21 22 23 24 25 26 27 28 29 30 31 32 33 34 35 36 37 38 39 40 41 42 43 44 45 46 47 48 49 50
000
ASUS44 KMAF 191010
RWRMAF
MIDLAND AREA WEATHER ROUNDUP
NATIONAL WEATHER SERVICE MIDLAND TX
500 AM CDT FRI SEP 19 2014

...IN SOUTHWEST TEXAS AND SOUTHEAST NEW MEXICO...

CITY           SKY/WX    TMP DP  RH WIND       PRES   REMARKS
ALPINE         PTCLDY    67  62  85 CALM      30.03F
ANDREWS        LGT RAIN  67  67  99 SE7       29.97F
ARTESIA        NOT AVBL
BIG SPRING     CLOUDY    73  68  85 E5        29.98R
CARLSBAD       CLOUDY    68  32  26 SW6       29.91F
DRYDEN           N/A     76  70  82 E7        29.88F
FORT STOCKTON  CLOUDY    70  67  90 SE9       29.91F
GUAD PASS      LGT RAIN  63  63 100 SW8       30.05F VSB 3/4
HOBBS          LGT RAIN  66  66 100 E8        30.00R
MARFA          MOCLDY    66  64  94 S3        30.03S
MIDLAND AIRPK  NOT AVBL
MIDLAND INTL   CLOUDY    69  68  96 SE8       29.94F
ODESSA         LGT RAIN  69  67  93 SE8       29.95F
PECOS          LGT RAIN  69  67  93 E14       29.87F
PRESIDIO       FAIR      75  67  76 CALM      29.88S
SEMINOLE       DRIZZLE   67  66  97 CALM      29.99F
SNYDER         CLOUDY    68  67  98 NE3       29.97S FOG
WINK           LGT RAIN  70  69  97 E10       29.91R
$$
...OTHER STATIONS IN TEXAS...

CITY           SKY/WX    TMP DP  RH WIND       PRES   REMARKS
ABILENE        PTCLDY    70  68  93 E3        29.95R
AMARILLO       MOCLDY    63  62  97 S7        30.03F
AUSTIN         CLOUDY    76  74  93 CALM      29.87F
BROWNSVILLE    NOT AVBL
CORPUS CHRISTI MOCLDY    77  75  93 CALM      29.82F
DALLAS FTW     MOCLDY    69  65  86 S6        29.93R
DEL RIO        MOCLDY    77  71  82 E12       29.84S
EL PASO        MOCLDY    67  65  93 NE6       29.94S
HOUSTON INT    HVY RAIN  75  73  93 NE8       29.87S
LUBBOCK        CLOUDY    66  65  96 SE3       30.00S FOG
SAN ANGELO     CLOUDY    71  69  93 N3        29.91S
SAN ANTONIO    CLOUDY    77  73  87 E3        29.88F
WACO           CLOUDY    70  69  97 E3        29.92R FOG
WICHITA FALLS  NOT AVBL
$$
...OTHER LOCATIONS IN NEW MEXICO...

CITY           SKY/WX    TMP DP  RH WIND       PRES   REMARKS
ALAMAGORDO     LGT RAIN  64  64 100 N6        29.98S
ALBUQUERQUE    CLOUDY    66  58  75 N6        30.07R
CANNON AFB     CLOUDY    64  63  94 SE6       30.05S
CLOVIS           N/A     63  63 100 S6        30.07S
HOLLOMAN AFB   MOCLDY    64  59  82 N8        29.96F
ROSWELL        RAIN      66  65  96 NE7       29.96F FOG
RUIDOSO        LGT RAIN  55  55 100 E7        30.14F
SANTA FE       MOCLDY    57  51  80 W3        30.12F
TRUTH OR CONSE CLOUDY    63  60  90 NW5       30.00F
TUCUMCARI      CLOUDY    67  61  81 S3        30.02S
$$


USA.gov is the U.S. government's official web portal to all federal, state and local government web resources and services.